Location: Newark
(44.6028°N, 124.0883°W)
Time: 20:05:51
(UTC+00:00)

Vanguard 1 - Pass Details

Date: 30 October 2019
Orbit: 652 x 3831 km, 34.2° (Epoch: 16 November)

Event Time Altitude Azimuth Distance (km) Brightness Sun altitude
Rises 06:17:09 0° 267° (W) 4,536 13.8 -52.1°
Reaches altitude 10° 06:20:22 10° 255° (WSW) 3,943 13.3 -52.5°
Enters shadow 06:21:51 15° 247° (WSW) 3,756 13.1 -52.7°
Maximum altitude 06:28:51 26° 204° (SSW) 3,753 - -53.5°
Drops below altitude 10° 06:41:40 10° 157° (SSE) 6,076 - -54.9°
Sets 06:48:28 0° 147° (SSE) 7,531 - -55.6°
